Regional Weather Roundup
Issued by NWS

Home | Current Version | Previous Version | Graphics & Text | Print | Product List | Glossary On
Versions: 1 2 3 4 5 6 7 8 9 10 11 12 13 14 15 16 17 18 19 20 21 22 23 24 25 26 27 28 29 30 31 32 33 34 35 36 37 38 39 40 41 42 43 44 45 46 47 48 49 50
000
ASUS43 KBIS 230102
RWRND

NORTH DAKOTA REGIONAL WEATHER ROUNDUP
NATIONAL WEATHER SERVICE BISMARCK ND
700 PM CST WED FEB 22 2017

NOTE: "FAIR" INDICATES FEW OR NO CLOUDS BELOW 12,000 FEET WITH NO
SIGNIFICANT WEATHER AND/OR OBSTRUCTIONS TO VISIBILITY.


NDZ001>003-009>011-017-230200-
NORTHWEST NORTH DAKOTA

CITY           SKY/WX    TMP DP  RH WIND       PRES   REMARKS
WILLISTON      FLURRIES  31  27  85 CALM      29.98R
MINOT          FAIR      30  25  81 W8        29.95R
MINOT AFB      CLEAR     27  24  89 W8        29.94R WCI  18
$$

NDZ018>021-031>035-040>046-230200-
SOUTHWEST NORTH DAKOTA

CITY           SKY/WX    TMP DP  RH WIND       PRES   REMARKS
BISMARCK       CLOUDY    34  30  85 N5        29.96R
DICKINSON      FLURRIES  28  25  88 N9        29.92R WCI  19
GARRISON         N/A     27  24  89 NW7       29.95R WCI  19
HETTINGER ARPT CLOUDY    30  27  88 N8        29.94R
$$

NDZ004>008-012>016-024-026-027-054-230200-
NORTHEAST NORTH DAKOTA

CITY           SKY/WX    TMP DP  RH WIND       PRES   REMARKS
GRAND FORKS    PTCLDY    32  24  72 N10       29.90R
GRND FRKS AFB  CLEAR     31  25  78 N10       29.91R
DEVILS LAKE    MOCLDY    29  26  89 NW8       29.93R
$$

NDZ022-023-025-028>030-036>039-047>053-230200-
SOUTHEAST NORTH DAKOTA

CITY           SKY/WX    TMP DP  RH WIND       PRES   REMARKS
FARGO          CLOUDY    34  29  82 N17       29.86R
JAMESTOWN      CLOUDY    31  26  82 N16       29.90R WCI  20
$$




USA.gov is the U.S. government's official web portal to all federal, state and local government web resources and services.